Regional Weather Roundup
Issued by NWS Upton, NY

Current Version | Previous Version | Text Only | Print | Product List | Glossary Off
Versions: 1 2 3 4 5 6 7 8 9 10 11 12 13 14 15 16 17 18 19 20 21 22 23 24 25 26 27

000
ASUS41 KOKX 221308
RWROKX

REGIONAL WEATHER ROUNDUP
NATIONAL WEATHER SERVICE NEW YORK NY
800 AM EST WED FEB 22 2017

NOTE: "FAIR" INDICATES FEW OR NO CLOUDS BELOW 12,000 FEET WITH NO
SIGNIFICANT WEATHER AND/OR OBSTRUCTIONS TO VISIBILITY.

NYZ071-072-176-178-NJZ106-104-221400-
NEW YORK CITY METRO AREA

CITY           SKY/WX    TMP DP  RH WIND       PRES   REMARKS
Central Park   CLOUDY    45  35  68 CALM      30.07S
Wall St Helipt NOT AVBL
LaGuardia APRT CLOUDY    46  35  65 SW8       30.05S
Kennedy INTL   CLOUDY    43  39  86 SW5       30.07S
Breezy Point     N/A     39 N/A N/A S3          N/A
Newark/Liberty PTSUNNY   42  36  79 VRB3      30.05S
Teterboro      PTSUNNY   43  36  76 SW7       30.05S
$$

NYZ177-179-078>081-221400-
LONG ISLAND NEW YORK

CITY           SKY/WX    TMP DP  RH WIND       PRES   REMARKS
Jones Beach      N/A     41 N/A N/A SW3         N/A
Matinecock PT  NOT AVBL
Farmingdale    PTSUNNY   43  37  79 SW3       30.06S
MacArthur/ISP  CLOUDY    42  38  85 SW5       30.06R
Shirley          N/A     42  39  89 VRB3      30.07S
Westhampton    PTSUNNY   42  38  85 SW6       30.07F
Southampton    NOT AVBL
Bridgehampton  NOT AVBL
East Hampton   CLOUDY    42  38  85 SW5       30.05F
Montauk          N/A     44  39  82 SW7       30.07S
$$

NYZ052-065-067-221400-
HUDSON VALLEY

CITY           SKY/WX    TMP DP  RH WIND       PRES   REMARKS
White Plains   DRIZZLE   42  34  73 CALM      30.03S
Newburgh       PTSUNNY   41  36  81 SW5       30.03S
Montgomery     PTSUNNY   42  35  76 SW5       30.02R
Poughkeepsie   CLOUDY    40  33  76 CALM      30.03S
Albany         CLOUDY    41  30  65 S8        30.03S
$$

NJZ001-105-106-008-010-013-015-019>022-104-221400-
NEW JERSEY

CITY           SKY/WX    TMP DP  RH WIND       PRES   REMARKS
Newark/Liberty PTSUNNY   42  36  79 VRB3      30.05S
Teterboro      PTSUNNY   43  36  76 SW7       30.05S
Caldwell       CLOUDY    42  34  73 SW3       30.06R
Somerville       N/A     39  34  82 CALM      30.04R
Linden         NOT AVBL
Sussex         CLOUDY    41  35  79 CALM      30.03R
Andover          N/A     40  34  79 CALM      30.03R
Trenton        CLOUDY    42  37  82 S5        30.05F
Millville        N/A     42  40  92 CALM      30.07S
Atlantic City    N/A     43  39  86 CALM      30.08S
Wrightstown    CLOUDY    40  37  87 S3        30.03F
Toms River     PTSUNNY   39  37  92 CALM      30.07F
Belmar         PTSUNNY   40  37  89 S3        30.06F
$$

PAZ047>061-062-071-221400-
EASTERN PENNSYLVANIA

CITY           SKY/WX    TMP DP  RH WIND       PRES   REMARKS
Philadelphia   CLOUDY    43  37  79 S5        30.07S
Allentown        N/A     41  34  76 CALM      30.04R
Scranton       LGT RAIN  42  36  79 NE5       30.00R
$$

CTZ002-004>006-009-010-012-RIZ004-006-007-MAZ004-011-015-221400-
SOUTHERN NEW ENGLAND
 IN CT

CITY           SKY/WX    TMP DP  RH WIND       PRES   REMARKS
Bradley INTL   CLOUDY    39  34  82 CALM      30.05R
Hartford       PTSUNNY   39  35  86 CALM      30.05R
Danbury        PTSUNNY   40  33  76 CALM      30.04S
Wtrbury/Oxford NOT AVBL
Bridgeport     CLOUDY    42  36  79 SW6       30.05F
Meriden          N/A     41  35  79 CALM      30.05S
New Haven      CLOUDY    40  37  89 SW3       30.05S
Chester          N/A     41  37  87 VRB3      30.03F
Groton           N/A     41  38  89 SW7       30.05S
Wilimantic       N/A     38  33  82 CALM      30.05S

 IN RI

CITY           SKY/WX    TMP DP  RH WIND       PRES   REMARKS
Providence     PTSUNNY   41  35  79 SW8       30.05S
Block Island   CLOUDY    43  40  89 SW14      30.06F
Westerly       CLOUDY    43  37  79 SW7       30.06F
 IN MA

CITY           SKY/WX    TMP DP  RH WIND       PRES   REMARKS
Boston         CLOUDY    41  34  76 SW12      30.04R
Worcester        N/A     35  30  82 W14       30.00R WCI  26
Westfield      CLOUDY    33  32  96 CALM      30.04R
Provincetown   CLOUDY    40  37  89 S12       30.04F WCI  33
Nantucket      CLOUDY    41  37  86 S10       30.07S
$$

ANZ330-335-338-340-345-350-353-355-221400-
COASTAL MARINE OBSERVATIONS


STATION/POSITION TIME  SKY/WX   TEMP    WIND        PRES    VSBY  WAVE
                                AIR SEA DIR/SP/G                  HT/PER
                 (UTC)          (F)     (DEG/KT/KT) (MB)    (MI)  (FT/S)
NY HARB ENTRANCE 1150            42 42  260/  2/  4 1017.9          2/ 9
20 S FIRE ISLAND 1150            43 43  220/  4/  4 1018.0          2/ 8
GREAT SOUTH BAY  NOT AVBL
23 SSW MONTAUK P 1150            45 46              1018.6          3/ 8
15 E BARNEGAT LI 1230               42                N/A           2/ 9
HUDSON CANYON    1150               49              1018.5          3/ 8
KINGS POINT      1230            41 38              1017.5
EXECUTION ROCKS  NOT AVBL
CENTRAL LI SOUND 1200            40     230/  8/ 10   N/A           0
EASTERN LI SOUND NOT AVBL
ROBBINS REEF     1230            41     180/  6/  7 1018.1
$$


>>>>>>>>>>>>>>>>>>>>>>>>>>>> KEY <<<<<<<<<<<<<<<<<<<<<<<<<<<
>                                                          <
>     SKY/WX - Sky Condition/Present Weather               <
>     TMP    - Temperature in Fahrenheit                   <
>     DP     - Dew Point in Fahrenheit                     <
>     RH     - Relative Humidity in Percent                <
>     WIND   - Direction (from) and Speed in MPH           <
>     PRES   - Mean Sea Level Pressure (inches of Hg)      <
>     WCI    - Wind Chill Index                            <
>     VSB    - VISIBILITY IN MILES                         <
>     HX     - HEAT INDEX                                  <
>     TC     - TEMPERATURE IN CELSIUS                      <
>     VRB    - VARIABLE WIND DIRECTION                     <
>                                                          <
>>>>>>>>>>>>>>>>>>>>>>>>>>>> KEY <<<<<<<<<<<<<<<<<<<<<<<<<<<




USA.gov is the U.S. government's official web portal to all federal, state and local government web resources and services.